| time (UTC) | temp F | wind direction | speed MPH | gust MPH | rain 1hr in | rain 24hr in | rain mn in | humidity % | barometer mb |
| 20260505025140 | 71 | 25 | 6.0 | 15.0 | 0.00 | 0.00 | 0.00 | 40 | 1003.8 |
| 20260505024627 | 72 | 269 | 5.0 | 17.0 | 0.00 | 0.00 | 0.00 | 40 | 1003.4 |
| 20260505024132 | 72 | 50 | 7.0 | 17.0 | 0.00 | 0.00 | 0.00 | 39 | 1003.3 |
| 20260505023638 | 73 | 322 | 5.0 | 13.0 | 0.00 | 0.00 | 0.00 | 40 | 1003.2 |
| 20260505023124 | 73 | 41 | 5.0 | 15.0 | 0.00 | 0.00 | 0.00 | 40 | 1003.0 |
| 20260505022631 | 73 | 36 | 5.0 | 15.0 | 0.00 | 0.00 | 0.00 | 40 | 1002.9 |
| 20260505022135 | 73 | 34 | 8.0 | 14.0 | 0.00 | 0.00 | 0.00 | 41 | 1002.9 |
| 20260505021702 | 73 | 10 | 6.0 | 15.0 | 0.00 | 0.00 | 0.00 | 44 | 1002.7 |
| 20260505021126 | 73 | 19 | 5.0 | 15.0 | 0.00 | 0.00 | 0.00 | 46 | 1002.7 |
| 20260505020621 | 73 | 292 | 4.0 | 10.0 | 0.00 | 0.00 | 0.00 | 47 | 1002.5 |
| 20260505020137 | 73 | 17 | 4.0 | 10.0 | 0.00 | 0.00 | 0.00 | 51 | 1002.5 |
| 20260505015624 | 72 | 58 | 3.0 | 9.0 | 0.00 | 0.00 | 0.00 | 58 | 1002.4 |
| 20260505015133 | 71 | 294 | 1.0 | 3.0 | 0.00 | 0.00 | 0.00 | 61 | 1002.4 |
| 20260505014640 | 72 | 211 | 0.0 | 2.0 | 0.00 | 0.00 | 0.00 | 60 | 1001.9 |
| 20260505014147 | 72 | 211 | 1.0 | 2.0 | 0.00 | 0.00 | 0.00 | 59 | 1001.8 |
| 20260505013632 | 73 | 211 | 0.0 | 2.0 | 0.00 | 0.00 | 0.00 | 59 | 1001.8 |
| 20260505013137 | 73 | 211 | 1.0 | 2.0 | 0.00 | 0.00 | 0.00 | 58 | 1001.8 |
| 20260505012643 | 73 | 211 | 1.0 | 2.0 | 0.00 | 0.00 | 0.00 | 58 | 1001.7 |
| 20260505012126 | 73 | 211 | 1.0 | 1.0 | 0.00 | 0.00 | 0.00 | 58 | 1001.8 |
| 20260505011653 | 73 | 211 | 0.0 | 1.0 | 0.00 | 0.00 | 0.00 | 58 | 1001.6 |
| 20260505011137 | 74 | 211 | 0.0 | 2.0 | 0.00 | 0.00 | 0.00 | 57 | 1001.5 |
| 20260505010633 | 74 | 211 | 1.0 | 2.0 | 0.00 | 0.00 | 0.00 | 56 | 1001.5 |
| 20260505010129 | 74 | 198 | 1.0 | 2.0 | 0.00 | 0.00 | 0.00 | 56 | 1001.4 |
| 20260505005655 | 74 | 198 | 1.0 | 1.0 | 0.00 | 0.00 | 0.00 | 56 | 1001.5 |
| 20260505005140 | 74 | 198 | 0.0 | 1.0 | 0.00 | 0.00 | 0.00 | 54 | 1001.4 |
| 20260505004626 | 74 | 198 | 0.0 | 1.0 | 0.00 | 0.00 | 0.00 | 54 | 1001.3 |
| 20260505004135 | 75 | 198 | 0.0 | 1.0 | 0.00 | 0.00 | 0.00 | 53 | 1001.3 |
| 20260505003621 | 75 | 198 | 0.0 | 1.0 | 0.00 | 0.00 | 0.00 | 52 | 1001.2 |
| 20260505003126 | 76 | 188 | 0.0 | 1.0 | 0.00 | 0.00 | 0.00 | 51 | 1001.3 |
| 20260505002653 | 76 | 188 | 0.0 | 1.0 | 0.00 | 0.00 | 0.00 | 50 | 1001.4 |
| 20260505002139 | 76 | 201 | 0.0 | 1.0 | 0.00 | 0.00 | 0.00 | 51 | 1001.4 |
| 20260505001626 | 77 | 201 | 0.0 | 1.0 | 0.00 | 0.00 | 0.00 | 50 | 1001.4 |
| 20260505001132 | 77 | 202 | 0.0 | 1.0 | 0.00 | 0.00 | 0.00 | 51 | 1001.4 |
| 20260505000628 | 77 | 206 | 0.0 | 1.0 | 0.00 | 0.00 | 0.00 | 50 | 1001.4 |
| 20260505000125 | 77 | 206 | 0.0 | 1.0 | 0.00 | 0.00 | 0.00 | 50 | 1001.4 |
| 20260504235632 | 77 | 206 | 0.0 | 2.0 | 0.00 | 0.00 | 0.00 | 50 | 1001.5 |
| 20260504235158 | 77 | 206 | 1.0 | 2.0 | 0.00 | 0.00 | 0.00 | 51 | 1001.5 |
| 20260504234623 | 77 | 205 | 1.0 | 2.0 | 0.00 | 0.00 | 0.00 | 49 | 1001.5 |
| 20260504234133 | 77 | 187 | 1.0 | 2.0 | 0.00 | 0.00 | 0.00 | 49 | 1001.5 |
| 20260504233640 | 78 | 134 | 1.0 | 2.0 | 0.00 | 0.00 | 0.00 | 49 | 1001.5 |
| 20260504233126 | 78 | 232 | 0.0 | 3.0 | 0.00 | 0.00 | 0.00 | 49 | 1001.5 |
| 20260504232632 | 79 | 240 | 1.0 | 3.0 | 0.00 | 0.00 | 0.00 | 46 | 1001.6 |
| 20260504232138 | 79 | 158 | 1.0 | 3.0 | 0.00 | 0.00 | 0.00 | 49 | 1001.5 |
| 20260504231623 | 79 | 210 | 1.0 | 3.0 | 0.00 | 0.00 | 0.00 | 49 | 1001.4 |
| 20260504231150 | 79 | 211 | 1.0 | 3.0 | 0.00 | 0.00 | 0.00 | 47 | 1001.4 |
| 20260504230626 | 79 | 268 | 1.0 | 5.0 | 0.00 | 0.00 | 0.00 | 46 | 1001.4 |
| 20260504230123 | 80 | 150 | 3.0 | 5.0 | 0.00 | 0.00 | 0.00 | 42 | 1001.4 |
| 20260504225629 | 80 | 243 | 1.0 | 3.0 | 0.00 | 0.00 | 0.00 | 42 | 1001.5 |
| 20260504225157 | 81 | 234 | 1.0 | 4.0 | 0.00 | 0.00 | 0.00 | 40 | 1001.4 |
| 20260504224638 | 81 | 114 | 1.0 | 10.0 | 0.00 | 0.00 | 0.00 | 41 | 1001.4 |
| 20260504224144 | 82 | 49 | 2.0 | 10.0 | 0.00 | 0.00 | 0.00 | 37 | 1001.3 |
| 20260504223632 | 82 | 120 | 2.0 | 4.0 | 0.00 | 0.00 | 0.00 | 38 | 1001.2 |
| 20260504223138 | 81 | 126 | 2.0 | 4.0 | 0.00 | 0.00 | 0.00 | 37 | 1001.2 |
| 20260504222634 | 81 | 126 | 2.0 | 3.0 | 0.00 | 0.00 | 0.00 | 42 | 1001.1 |
| 20260504222201 | 81 | 144 | 2.0 | 6.0 | 0.00 | 0.00 | 0.00 | 37 | 1001.2 |
| 20260504221626 | 81 | 132 | 1.0 | 6.0 | 0.00 | 0.00 | 0.00 | 41 | 1001.3 |
| 20260504221132 | 80 | 164 | 1.0 | 3.0 | 0.00 | 0.00 | 0.00 | 41 | 1001.1 |
| 20260504220649 | 80 | 153 | 1.0 | 3.0 | 0.00 | 0.00 | 0.00 | 42 | 1001.3 |
| 20260504220133 | 80 | 134 | 1.0 | 3.0 | 0.00 | 0.00 | 0.00 | 47 | 1001.2 |
| 20260504215641 | 80 | 248 | 0.0 | 2.0 | 0.00 | 0.00 | 0.00 | 45 | 1001.3 |
| 20260504215126 | 80 | 266 | 0.0 | 3.0 | 0.00 | 0.00 | 0.00 | 44 | 1001.3 |
| 20260504214633 | 81 | 244 | 2.0 | 4.0 | 0.00 | 0.00 | 0.00 | 43 | 1001.3 |
| 20260504214140 | 81 | 139 | 2.0 | 7.0 | 0.00 | 0.00 | 0.00 | 41 | 1001.4 |
| 20260504213620 | 82 | 129 | 2.0 | 7.0 | 0.00 | 0.00 | 0.00 | 41 | 1001.5 |
| 20260504213127 | 82 | 132 | 1.0 | 4.0 | 0.00 | 0.00 | 0.00 | 38 | 1001.5 |
| 20260504212633 | 82 | 135 | 1.0 | 5.0 | 0.00 | 0.00 | 0.00 | 38 | 1001.6 |
| 20260504212159 | 82 | 123 | 2.0 | 5.0 | 0.00 | 0.00 | 0.00 | 43 | 1001.5 |
| 20260504211624 | 83 | 122 | 1.0 | 5.0 | 0.00 | 0.00 | 0.00 | 38 | 1001.5 |
| 20260504211132 | 83 | 109 | 1.0 | 4.0 | 0.00 | 0.00 | 0.00 | 38 | 1001.5 |
| 20260504210627 | 82 | 56 | 1.0 | 2.0 | 0.00 | 0.00 | 0.00 | 37 | 1001.5 |
| 20260504210144 | 82 | 322 | 1.0 | 3.0 | 0.00 | 0.00 | 0.00 | 39 | 1001.7 |
| 20260504205627 | 83 | 51 | 2.0 | 5.0 | 0.00 | 0.00 | 0.00 | 39 | 1001.8 |
| 20260504205133 | 83 | 347 | 2.0 | 7.0 | 0.00 | 0.00 | 0.00 | 37 | 1001.8 |
| 20260504204700 | 83 | 229 | 1.0 | 7.0 | 0.00 | 0.00 | 0.00 | 37 | 1001.8 |
| 20260504204123 | 82 | 180 | 2.0 | 3.0 | 0.00 | 0.00 | 0.00 | 36 | 1001.9 |
| 20260504203629 | 82 | 119 | 1.0 | 4.0 | 0.00 | 0.00 | 0.00 | 37 | 1002.1 |
| 20260504203136 | 83 | 78 | 3.0 | 4.0 | 0.00 | 0.00 | 0.00 | 36 | 1001.9 |
| 20260504202641 | 82 | 69 | 1.0 | 4.0 | 0.00 | 0.00 | 0.00 | 38 | 1002.1 |
| 20260504202131 | 83 | 40 | 3.0 | 6.0 | 0.00 | 0.00 | 0.00 | 35 | 1002.1 |
| 20260504201636 | 83 | 128 | 2.0 | 6.0 | 0.00 | 0.00 | 0.00 | 34 | 1002.2 |
| 20260504201122 | 83 | 63 | 1.0 | 3.0 | 0.00 | 0.00 | 0.00 | 36 | 1002.2 |
| 20260504200638 | 83 | 296 | 1.0 | 3.0 | 0.00 | 0.00 | 0.00 | 40 | 1002.2 |
| 20260504200134 | 82 | 156 | 0.0 | 3.0 | 0.00 | 0.00 | 0.00 | 38 | 1002.2 |
| 20260504195621 | 83 | 19 | 1.0 | 4.0 | 0.00 | 0.00 | 0.00 | 42 | 1002.2 |
| 20260504195128 | 83 | 17 | 2.0 | 5.0 | 0.00 | 0.00 | 0.00 | 34 | 1002.4 |
| 20260504194634 | 84 | 51 | 1.0 | 5.0 | 0.00 | 0.00 | 0.00 | 35 | 1002.3 |
| 20260504194139 | 84 | 19 | 2.0 | 5.0 | 0.00 | 0.00 | 0.00 | 33 | 1002.4 |
| 20260504193626 | 84 | 313 | 1.0 | 4.0 | 0.00 | 0.00 | 0.00 | 32 | 1002.5 |
| 20260504193132 | 83 | 51 | 1.0 | 5.0 | 0.00 | 0.00 | 0.00 | 35 | 1002.4 |
| 20260504192622 | 82 | 355 | 1.0 | 5.0 | 0.00 | 0.00 | 0.00 | 35 | 1002.5 |
| 20260504192129 | 82 | 13 | 1.0 | 3.0 | 0.00 | 0.00 | 0.00 | 33 | 1002.4 |
| 20260504191634 | 81 | 273 | 1.0 | 3.0 | 0.00 | 0.00 | 0.00 | 39 | 1002.5 |
| 20260504191121 | 82 | 266 | 0.0 | 2.0 | 0.00 | 0.00 | 0.00 | 41 | 1002.5 |
| 20260504190635 | 83 | 145 | 0.0 | 4.0 | 0.00 | 0.00 | 0.00 | 37 | 1002.4 |
| 20260504190152 | 84 | 279 | 1.0 | 4.0 | 0.00 | 0.00 | 0.00 | 30 | 1002.6 |
| 20260504185637 | 84 | 310 | 2.0 | 6.0 | 0.00 | 0.00 | 0.00 | 34 | 1002.6 |
| 20260504185124 | 84 | 313 | 3.0 | 6.0 | 0.00 | 0.00 | 0.00 | 33 | 1002.5 |
| 20260504184629 | 84 | 47 | 3.0 | 4.0 | 0.00 | 0.00 | 0.00 | 32 | 1002.6 |
| 20260504184137 | 84 | 355 | 2.0 | 6.0 | 0.00 | 0.00 | 0.00 | 30 | 1002.6 |
| 20260504183621 | 85 | 54 | 2.0 | 7.0 | 0.00 | 0.00 | 0.00 | 33 | 1002.7 |
| 20260504183127 | 85 | 336 | 3.0 | 7.0 | 0.00 | 0.00 | 0.00 | 33 | 1002.6 |
| 20260504182636 | 84 | 95 | 2.0 | 7.0 | 0.00 | 0.00 | 0.00 | 37 | 1002.5 |
| 20260504182123 | 83 | 59 | 1.0 | 8.0 | 0.00 | 0.00 | 0.00 | 35 | 1002.5 |
| 20260504181648 | 84 | 316 | 1.0 | 8.0 | 0.00 | 0.00 | 0.00 | 36 | 1002.7 |
| 20260504181135 | 83 | 78 | 2.0 | 5.0 | 0.00 | 0.00 | 0.00 | 33 | 1002.6 |
| 20260504180631 | 83 | 263 | 2.0 | 4.0 | 0.00 | 0.00 | 0.00 | 34 | 1002.6 |
| 20260504180126 | 82 | 305 | 2.0 | 4.0 | 0.00 | 0.00 | 0.00 | 42 | 1002.5 |
| 20260504175631 | 83 | 49 | 2.0 | 4.0 | 0.00 | 0.00 | 0.00 | 38 | 1002.6 |
| 20260504175135 | 83 | 277 | 2.0 | 4.0 | 0.00 | 0.00 | 0.00 | 43 | 1002.7 |
| 20260504174621 | 82 | 235 | 1.0 | 8.0 | 0.00 | 0.00 | 0.00 | 43 | 1002.7 |
| 20260504174127 | 82 | 340 | 3.0 | 8.0 | 0.00 | 0.00 | 0.00 | 39 | 1002.8 |
| 20260504173633 | 81 | 38 | 3.0 | 6.0 | 0.00 | 0.00 | 0.00 | 42 | 1002.8 |
| 20260504173122 | 81 | 69 | 2.0 | 3.0 | 0.00 | 0.00 | 0.00 | 44 | 1002.8 |
| 20260504172627 | 80 | 254 | 1.0 | 5.0 | 0.00 | 0.00 | 0.00 | 44 | 1002.7 |
| 20260504172133 | 80 | 254 | 1.0 | 4.0 | 0.00 | 0.00 | 0.00 | 47 | 1002.7 |
| 20260504171638 | 79 | 228 | 2.0 | 4.0 | 0.00 | 0.00 | 0.00 | 46 | 1003.0 |
| 20260504171124 | 79 | 271 | 1.0 | 4.0 | 0.00 | 0.00 | 0.00 | 47 | 1003.0 |
| 20260504170639 | 79 | 281 | 2.0 | 4.0 | 0.00 | 0.00 | 0.00 | 46 | 1003.1 |
| 20260504170134 | 79 | 218 | 1.0 | 4.0 | 0.00 | 0.00 | 0.00 | 47 | 1003.1 |
| 20260504160124 | 73 | 280 | 1.0 | 3.0 | 0.00 | 0.00 | 0.00 | 52 | 1003.5 |
| 20260504151126 | 70 | 248 | 1.0 | 4.0 | 0.00 | 0.00 | 0.00 | 57 | 1003.3 |
| 20260504150621 | 70 | 238 | 1.0 | 4.0 | 0.00 | 0.00 | 0.00 | 58 | 1003.4 |
| 20260504150139 | 70 | 244 | 1.0 | 3.0 | 0.00 | 0.00 | 0.00 | 57 | 1003.4 |
| 20260504141154 | 66 | 239 | 1.0 | 3.0 | 0.00 | 0.00 | 0.00 | 65 | 1003.4 |
| 20260504140628 | 65 | 286 | 1.0 | 2.0 | 0.00 | 0.00 | 0.00 | 68 | 1003.4 |
| 20260504140126 | 65 | 207 | 1.0 | 3.0 | 0.00 | 0.00 | 0.00 | 68 | 1003.4 |
| 20260504130626 | 60 | 245 | 1.0 | 2.0 | 0.00 | 0.00 | 0.00 | 73 | 1003.0 |
| 20260504130123 | 59 | 298 | 0.0 | 2.0 | 0.00 | 0.00 | 0.00 | 74 | 1003.0 |
| 20260504120138 | 56 | 213 | 1.0 | 3.0 | 0.00 | 0.00 | 0.00 | 77 | 1002.3 |
| 20260504110640 | 51 | 168 | 1.0 | 2.0 | 0.00 | 0.00 | 0.00 | 85 | 1002.7 |
| 20260504110157 | 51 | 168 | 0.0 | 2.0 | 0.00 | 0.00 | 0.00 | 85 | 1002.8 |
| 20260504100131 | 53 | 41 | 0.0 | 3.0 | 0.00 | 0.00 | 0.00 | 81 | 1003.3 |
| 20260504090121 | 54 | 246 | 1.0 | 1.0 | 0.00 | 0.00 | 0.00 | 82 | 1003.9 |
| 20260504081637 | 55 | 273 | 2.0 | 3.0 | 0.00 | 0.00 | 0.00 | 78 | 1004.3 |
| 20260504081123 | 56 | 282 | 1.0 | 2.0 | 0.00 | 0.00 | 0.00 | 76 | 1004.2 |
| 20260504080620 | 57 | 282 | 0.0 | 2.0 | 0.00 | 0.00 | 0.00 | 75 | 1004.1 |
| 20260504080136 | 57 | 282 | 1.0 | 2.0 | 0.00 | 0.00 | 0.00 | 75 | 1004.0 |
| 20260504070133 | 61 | 282 | 0.0 | 1.0 | 0.00 | 0.00 | 0.00 | 61 | 1004.8 |
| 20260504060131 | 61 | 5 | 0.0 | 4.0 | 0.00 | 0.00 | 0.00 | 68 | 1005.6 |
| 20260504050628 | 64 | 16 | 1.0 | 2.0 | 0.00 | 0.00 | 0.00 | 61 | 1005.8 |
| 20260504050126 | 65 | 37 | 0.0 | 3.0 | 0.00 | 0.00 | 0.00 | 59 | 1005.9 |
| 20260504045630 | 66 | 37 | 1.0 | 4.0 | 0.00 | 0.00 | 0.00 | 57 | 1006.0 |
| 20260504045136 | 67 | 75 | 2.0 | 4.0 | 0.00 | 0.00 | 0.00 | 56 | 1006.0 |
| 20260504044621 | 67 | 84 | 2.0 | 4.0 | 0.00 | 0.00 | 0.00 | 55 | 1006.0 |
| 20260504044130 | 67 | 73 | 3.0 | 4.0 | 0.00 | 0.00 | 0.00 | 55 | 1006.0 |
| 20260504043635 | 67 | 53 | 1.0 | 4.0 | 0.00 | 0.00 | 0.00 | 55 | 1006.1 |
| 20260504043122 | 67 | 58 | 2.0 | 4.0 | 0.00 | 0.00 | 0.00 | 56 | 1006.2 |
| 20260504042628 | 68 | 55 | 1.0 | 6.0 | 0.00 | 0.00 | 0.00 | 55 | 1006.2 |
| 20260504042132 | 67 | 101 | 3.0 | 8.0 | 0.00 | 0.00 | 0.00 | 56 | 1006.3 |
| 20260504041639 | 68 | 36 | 2.0 | 8.0 | 0.00 | 0.00 | 0.00 | 56 | 1006.2 |
| 20260504041123 | 67 | 149 | 2.0 | 7.0 | 0.00 | 0.00 | 0.00 | 58 | 1006.2 |
| 20260504040620 | 67 | 66 | 2.0 | 4.0 | 0.00 | 0.00 | 0.00 | 58 | 1006.5 |
| 20260504040138 | 67 | 103 | 2.0 | 5.0 | 0.00 | 0.00 | 0.00 | 58 | 1006.7 |
| 20260504035623 | 68 | 48 | 3.0 | 5.0 | 0.00 | 0.00 | 0.00 | 57 | 1006.7 |
| 20260504035129 | 68 | 57 | 3.0 | 7.0 | 0.00 | 0.00 | 0.00 | 57 | 1006.8 |
| 20260504034634 | 68 | 60 | 3.0 | 7.0 | 0.00 | 0.00 | 0.00 | 56 | 1006.9 |
| 20260504034125 | 68 | 90 | 3.0 | 5.0 | 0.00 | 0.00 | 0.00 | 56 | 1007.2 |
| 20260504033631 | 68 | 48 | 2.0 | 5.0 | 0.00 | 0.00 | 0.00 | 56 | 1007.4 |
| 20260504033138 | 68 | 117 | 2.0 | 6.0 | 0.00 | 0.00 | 0.00 | 57 | 1007.1 |
| 20260504032645 | 67 | 59 | 3.0 | 6.0 | 0.00 | 0.00 | 0.00 | 58 | 1007.3 |
| 20260504032129 | 66 | 89 | 2.0 | 4.0 | 0.00 | 0.00 | 0.00 | 60 | 1007.4 |
| 20260504031635 | 67 | 59 | 3.0 | 4.0 | 0.00 | 0.00 | 0.00 | 59 | 1007.3 |
| 20260504031120 | 67 | 89 | 1.0 | 2.0 | 0.00 | 0.00 | 0.00 | 58 | 1007.4 |
| 20260504030657 | 68 | 92 | 1.0 | 2.0 | 0.00 | 0.00 | 0.00 | 57 | 1007.4 |
| 20260504030151 | 68 | 70 | 1.0 | 4.0 | 0.00 | 0.00 | 0.00 | 56 | 1007.4 |
| 20260504025635 | 69 | 63 | 2.0 | 4.0 | 0.00 | 0.00 | 0.00 | 54 | 1007.3 |